www.pogodaiklimat.ru

Погода и климат >> Архив погоды >> Хорватия >> Дубровник


ПОГОДА в Дубровнике

  • Прогноз погоды в Дубровнике
  • Монитор погоды в Дубровнике

АРХИВ ПОГОДЫ в Дубровнике

Время (UTC), дата Ветер
(напр.,м/с)
 
Видим.   Явления Облачность Т
(С)
Тd
(С)
f
(%)
Тe
(С)
Тes
(С)
Комфортность P
(гПа)
Po
(гПа)
Тmin
(С)
Tmax
(С)
R
(мм)
R24
(мм)
S
(см)
07 13.08 ЮВ 1 20 км ясно +29.7 +20.7 58 +37 +45 очень
душно
1009.0 1003.0
08 13.08 ЮВ 1 20 км ясно +31.6 +20.0 50 +38 +50 очень
душно
1009.3 1003.3
09 13.08 ЮВ 2 20 км ясно +31.9 +22.7 58 +42 +56 опасность
перегрева
1009.3 1003.4
10 13.08 ЮВ 2 20 км ясно +33.7 +19.8 44 +40 +56 опасность
солнечного
удара
1009.1 1003.2
11 13.08 ЮВ 3 20 км ясно +34.6 +20.1 43 +41 +55 опасность
перегрева
1009.1 1003.2
12 13.08 ЮВ 3 20 км ясно +34.8 +20.7 44 +42 +55 опасность
перегрева
1008.9 1003.0
13 13.08 ЮВ 2 20 км ясно +33.9 +21.9 50 +43 +55 опасность
перегрева
1008.4 1002.5
14 13.08 Ю 2 н/о н/о +32.0 +23.3 60 +43 +43 опасность
перегрева
1008.0 1002.0
15 13.08 Ю 2 н/о н/о +31.3 +23.5 63 +42 +42 опасность
перегрева
1007.6 1001.6
16 13.08 СЗ 2 н/о н/о +31.4 +22.5 59 +41 +41 опасность
перегрева
1007.8 1001.8
17 13.08 штиль 0 н/о н/о +32.1 +20.8 51 +39 +39 очень
душно
1007.4 1001.4
18 13.08 штиль 0 20 км 1/1 1000 м
[Cu med, cong]
+31.5 +18.0 45 +36 +36 очень
душно
1007.1 1001.1 +34.9
19 13.08 С 2 20 км ясно +29.8 +21.5 61 +38 +38 очень
душно
1007.4 1001.4
20 13.08 С 3 20 км ясно +29.5 +19.0 53 +35 +35 очень
душно
1007.7 1001.7
21 13.08 В 2 н/о н/о +31.6 +16.0 39 +34 +34 душно 1007.1 1001.1
00 14.08 ЮВ 3 н/о н/о +27.4 +24.5 84 +39 +39 очень
душно
1006.9 1000.9
03 14.08 ЮВ 3 20 км ясно +27.1 +24.0 83 +37 +37 очень
душно
1007.0 1001.0
04 14.08 ЮВ 1 20 км ясно +26.8 +24.0 85 +37 +37 очень
душно
1007.0 1001.0
05 14.08 ЮВ 1 20 км 4/1 1000 м
[Cu med, cong Ci fib]
+26.5 +23.4 83 +36 +37 очень
душно
1007.0 1001.0
06 14.08 В 1 20 км 5/3 1000 м
[Cu med, cong Ci fib]
+27.6 +23.6 79 +38 +40 очень
душно
1007.1 1001.1 +29.5
07 14.08 ЮВ 2 20 км 8/4 1000 м
[Cu med, cong Ci fib]
+28.5 +23.4 74 +39 +42 очень
душно
1007.4 1001.4
08 14.08 ЮЗ 1 20 км 8/4 1000 м
[Cu med, cong Ci fib]
+28.8 +24.7 79 +41 +48 опасность
перегрева
1007.9 1001.9
09 14.08 ЮЗ 3 20 км 8/5 1000 м
[Cu med, cong Ci fib]
+29.5 +24.1 73 +41 +46 опасность
перегрева
1008.0 1002.0
10 14.08 СВ 5 20 км 9/4 1000 м
[Cu med, cong Ac und]
+31.0 +14.7 37 +33 +35 душно 1008.0 1002.0
11 14.08 СЗ 2 20 км 9/3 1000 м
[Cu med, cong Ac und]
+30.3 +15.5 41 +33 +38 душно 1008.0 1002.0
12 14.08 СЗ 5 20 км 10/3 1000 м
[Cu med, cong Ac As]
+29.5 +19.7 56 +36 +37 очень
душно
1009.4 1003.4
13 14.08 СВ 2 20 км 10/3 1000 м
[Cu med, cong Ac As]
+26.7 +19.1 63 +32 +35 очень
душно
1010.3 1004.2
14 14.08 СЗ 3 н/о н/о +29.7 +16.6 45 +33 +33 душно 1008.5 1002.5
15 14.08 СЗ 2 н/о н/о +30.5 +16.2 42 +34 +34 очень
душно
1008.2 1002.2
16 14.08 СЗ 3 н/о н/о +28.9 +20.2 59 +35 +35 очень
душно
1008.3 1002.3
17 14.08 СЗ 1 н/о н/о +28.4 +19.4 58 +34 +34 очень
душно
1008.6 1002.6
18 14.08 СЗ 1 20 км 3/0
[Ci fib]
+27.2 +19.5 63 +33 +33 очень
душно
1008.1 1002.1 +32.3
19 14.08 С 2 20 км 3/0
[Ac cast]
+27.0 +15.6 50 +30 +30 душно 1009.1 1003.0
20 14.08 СВ 5 20 км ясно +26.6 +13.6 45 +29 +29 жарко 1009.3 1003.2
21 14.08 СВ 10 н/о н/о +26.3 +13.8 46 +28 +28 жарко 1009.4 1003.3
00 15.08 СВ 8 н/о н/о +24.9 +12.9 47 +27 +27 жарко 1010.3 1004.2
03 15.08 СВ 8 30 км ясно +23.3 +8.9 40 +25 +25 комфорт 1010.2 1004.0
04 15.08 СВ 8 30 км ясно +22.9 +8.6 40 +24 +24 комфорт 1010.2 1004.0
05 15.08 СВ 11 30 км ясно +22.7 +7.8 38 +24 +24 комфорт 1010.3 1004.1
06 15.08 СВ 9 30 км 1/1 1000 м
[Cu med, cong]
+23.5 +8.5 38 +24 +24 комфорт 1010.4 1004.2 +22.5
07 15.08 СВ 11 30 км 3/1 1000 м
[Cu med, cong Ci fib]
+24.0 +8.1 36 +24 +25 комфорт 1010.9 1004.8
08 15.08 СВ 8 30 км 3/1 1000 м
[Cu med, cong Ci fib]
+25.1 +8.7 35 +26 +27 жарко 1011.1 1005.0
09 15.08 СВ 3 30 км 1/1 1000 м
[Cu med, cong]
+26.5 +8.2 31 +26 +37 жарко 1011.1 1005.0
10 15.08 ЮЗ 3 30 км 3/3 1000 м
[Cu med, cong]
+29.2 +10.4 31 +29 +39 жарко 1011.0 1005.0
11 15.08 З 5 30 км 3/3 1000 м
[Cu med, cong]
+28.0 +12.0 37 +29 +35 жарко 1011.1 1005.0
12 15.08 З 6 30 км 3/3 1000 м
[Cu med, cong]
+28.2 +12.3 37 +29 +34 жарко 1011.0 1004.9
13 15.08 З 7 30 км 3/3 1000 м
[Cu med, cong]
+28.7 +11.7 35 +30 +32 жарко 1010.6 1004.6
14 15.08 З 6 н/о н/о +27.0 +15.4 49 +30 +30 душно 1011.0 1004.9
15 15.08 З 5 н/о н/о +26.9 +16.9 54 +31 +31 душно 1010.9 1004.8
16 15.08 З 7 н/о н/о +26.7 +14.9 48 +29 +29 жарко 1010.7 1004.6
17 15.08 З 4 н/о н/о +26.5 +15.9 52 +30 +30 душно 1010.6 1004.5
18 15.08 СЗ 5 30 км ясно +26.0 +11.1 39 +27 +27 жарко 1010.3 1004.2 +30.0
19 15.08 СЗ 3 30 км ясно +25.3 +12.9 46 +27 +27 жарко 1011.2 1005.1
20 15.08 СВ 2 30 км ясно +24.5 +9.3 38 +25 +25 комфорт 1011.8 1005.7
21 15.08 СЗ 2 н/о н/о +25.2 +8.7 35 +26 +26 жарко 1012.4 1006.3
00 16.08 З 2 н/о н/о +24.5 +8.9 37 +25 +25 комфорт 1012.1 1006.0
03 16.08 З 1 30 км 3/0
[Ac cast]
+23.0 +5.5 32 +23 +23 комфорт 1011.7 1005.5
04 16.08 СВ 5 30 км 3/0
[Ac cast]
+23.0 +6.6 35 +24 +24 комфорт 1012.0 1005.8
05 16.08 С 4 30 км 5/1 1000 м
[Cu med, cong Ac cast]
+23.3 +6.3 33 +24 +24 комфорт 1012.1 1005.9
06 16.08 СВ 7 30 км 5/1 1000 м
[Cu med, cong Ac cast]
+23.4 +7.2 35 +24 +25 комфорт 1012.3 1006.1 +22.7
07 16.08 С 4 30 км 3/3 1000 м
[Cu med, cong]
+23.9 +7.7 35 +24 +27 комфорт 1012.4 1006.2
08 16.08 СВ 2 30 км 3/3 1000 м
[Cu med, cong]
+26.0 +8.9 34 +26 +34 жарко 1012.7 1006.6
09 16.08 ЮЗ 3 30 км 3/3 1000 м
[Cu med, cong]
+28.1 +12.1 37 +29 +37 жарко 1013.0 1006.9
10 16.08 З 4 30 км 3/3 1000 м
[Cu med, cong]
+28.3 +13.4 40 +30 +38 жарко 1013.0 1006.9
11 16.08 З 3 30 км 3/3 1000 м
[Cu med, cong]
+27.0 +11.9 39 +28 +38 жарко 1013.0 1006.9
12 16.08 ЮЗ 3 30 км 3/3 1000 м
[Cu med, cong]
+29.0 +12.5 36 +30 +39 жарко 1012.9 1006.9
13 16.08 З 5 30 км 3/3 1000 м
[Cu med, cong Ci fib]
+30.1 +12.6 34 +31 +36 жарко 1012.9 1006.9
14 16.08 З 4 н/о н/о +27.2 +15.0 47 +30 +30 душно 1013.5 1007.4
15 16.08 З 4 н/о н/о +27.0 +14.8 47 +30 +30 душно 1013.3 1007.2
16 16.08 З 4 н/о н/о +26.3 +16.6 55 +30 +30 душно 1013.2 1007.1
17 16.08 З 2 н/о н/о +25.4 +16.9 59 +29 +29 душно 1013.0 1006.9
18 16.08 З 2 20 км ясно +25.0 +16.8 60 +29 +29 душно 1013.0 1006.9 +30.0
19 16.08 С 1 20 км ясно +24.4 +15.0 56 +27 +27 жарко 1013.2 1007.1
20 16.08 штиль 0 20 км ясно +23.6 +16.3 64 +27 +27 жарко 1013.9 1007.7
21 16.08 СВ 5 н/о н/о +24.4 +12.4 47 +26 +26 жарко 1014.4 1008.2
00 17.08 СВ 8 н/о н/о +24.6 +8.2 35 +25 +25 комфорт 1014.1 1008.0
03 17.08 СВ 6 30 км ясно +24.1 +6.2 32 +24 +24 комфорт 1013.9 1007.7
04 17.08 СВ 6 30 км 1/1 1000 м
[Cu hum]
+23.7 +6.3 33 +24 +24 комфорт 1014.1 1007.9
05 17.08 С 4 30 км ясно +23.3 +6.5 34 +24 +24 комфорт 1014.2 1008.0
06 17.08 СВ 6 30 км ясно +24.1 +7.7 35 +24 +26 комфорт 1014.9 1008.7 +23.0
07 17.08 СВ 5 30 км ясно +24.5 +6.8 32 +25 +28 комфорт 1015.1 1008.9
08 17.08 СВ 2 30 км ясно +26.7 +8.0 31 +27 +37 жарко 1015.3 1009.2
09 17.08 Ю 3 30 км ясно +28.5 +12.2 36 +30 +41 жарко 1015.8 1009.7
10 17.08 ЮЗ 3 30 км 1/1 1000 м
[Cu hum]
+28.8 +14.1 41 +31 +43 жарко 1016.0 1009.9
11 17.08 ЮЗ 3 30 км 4/1 1000 м
[Cu hum Ci fib]
+29.1 +14.7 41 +31 +43 жарко 1015.8 1009.7
12 17.08 ЮЗ 3 30 км 4/1 1000 м
[Cu med, cong Ci fib]
+29.0 +14.7 42 +31 +42 жарко 1015.3 1009.2
13 17.08 ЮЗ 2 30 км 4/1 1000 м
[Cu med, cong Ci fib]
+29.4 +15.0 42 +32 +42 душно 1015.0 1009.0
14 17.08 З 6 н/о н/о +27.3 +15.1 47 +30 +30 душно 1015.3 1009.2
15 17.08 н/о н/о +26.4 +16.1 53 1015.2 1009.1
16 17.08 З 5 н/о н/о +26.0 +18.5 63 +31 +31 очень
душно
1015.2 1009.1
17 17.08 З 3 н/о н/о +25.5 +17.5 61 +30 +30 душно 1015.2 1009.1
18 17.08 СЗ 2 30 км 3/0
[Ci fib]
+25.0 +12.9 47 +27 +27 жарко 1014.3 1008.2 +29.4
19 17.08 В 1 30 км ясно +24.7 +16.4 60 +28 +28 душно 1014.3 1008.2
20 17.08 С 1 30 км ясно +23.5 +17.6 69 +27 +27 душно 1014.9 1008.7
21 17.08 СЗ 2 н/о н/о +24.7 +12.7 47 +27 +27 жарко 1015.3 1009.1
00 18.08 С 1 н/о н/о +24.7 +11.0 42 +26 +26 жарко 1015.1 1009.0
03 18.08 С 2 30 км 3/0
[Ci fib]
+24.0 +7.6 35 +24 +24 комфорт 1014.4 1008.2
04 18.08 С 2 30 км 3/0
[Ci fib]
+23.2 +8.8 40 +25 +25 комфорт 1014.7 1008.5
05 18.08 С 2 30 км 3/0
[Ci fib]
+22.7 +6.8 36 +23 +24 комфорт 1015.1 1008.9
06 18.08 С 1 30 км 3/0
[Ci fib]
+24.1 +8.4 37 +25 +28 комфорт 1015.2 1009.0 +22.7
07 18.08 штиль 0 30 км 3/0
[Ci fib]
+25.0 +10.6 40 +26 +34 жарко 1015.2 1009.1
08 18.08 ЮЗ 1 30 км ясно +27.0 +12.1 40 +28 +40 жарко 1015.4 1009.3
09 18.08 ЮЗ 2 30 км ясно +27.2 +14.5 46 +30 +43 душно 1015.6 1009.5
10 18.08 ЮЗ 2 30 км ясно +28.0 +14.8 44 +30 +46 жарко 1016.0 1009.9
11 18.08 ЮЗ 2 30 км ясно +28.2 +16.7 50 +32 +48 душно 1016.0 1009.9
12 18.08 ЮЗ 2 30 км ясно +28.7 +15.5 45 +32 +47 душно 1016.2 1010.1
13 18.08 ЮЗ 2 30 км ясно +28.8 +15.6 45 +32 +44 душно 1016.2 1010.1
14 18.08 ЮЗ 2 н/о н/о +28.3 +19.6 59 +34 +34 очень
душно
1016.1 1010.0
15 18.08 ЮЗ 2 н/о н/о +28.4 +19.7 59
16 18.08 ЮЗ 2 н/о н/о +27.4 +19.3 61 +33 +33 очень
душно
1015.7 1009.6
17 18.08 З 2 н/о н/о +26.4 +18.9 63 +31 +31 душно 1015.5 1009.4
18 18.08 СЗ 1 30 км ясно +25.8 +20.6 73 +32 +32 очень
душно
1015.1 1009.0 +29.1
19 18.08 С 1 30 км ясно +25.2 +19.0 69 +30 +30 душно 1015.1 1009.0
20 18.08 З 1 30 км ясно +24.5 +17.7 66 +29 +29 душно 1015.1 1009.0
21 18.08 СЗ 2 н/о н/о +24.4 +15.9 59 +28 +28 душно 1015.4 1009.2
00 19.08 СЗ 2 н/о н/о +24.0 +13.9 53 +26 +26 жарко 1015.8 1009.6
03 19.08 СЗ 1 30 км ясно +23.2 +15.0 60 +27 +27 душно 1015.2 1009.0
04 19.08 С 2 30 км ясно +23.3 +14.8 59 +27 +27 душно 1015.2 1009.0
05 19.08 В 1 30 км ясно +22.9 +14.5 59 +27 +27 душно 1015.2 1009.0
06 19.08 штиль 0 30 км ясно +23.1 +13.8 56 +27 +30 душно 1015.7 1009.5 +22.5
07 19.08 ЮЗ 1 30 км ясно +25.7 +17.6 61 +30 +37 душно 1015.8 1009.7
08 19.08 ЮЗ 1 30 км ясно +26.3 +17.1 57 +30 +42 душно 1015.9 1009.8
09 19.08 ЮВ 2 30 км ясно +27.9 +19.1 59 +33 +47 очень
душно
1015.9 1009.8
10 19.08 Ю 2 30 км ясно +29.4 +21.1 61 +37 +53 опасность
солнечного
удара
1015.9 1009.9
11 19.08 Ю 2 30 км ясно +30.0 +21.2 59 +38 +54 опасность
солнечного
удара
1016.1 1010.1
12 19.08 Ю 3 30 км ясно +30.4 +18.7 50 +36 +48 очень
душно
1016.1 1010.1
13 19.08 ЮЗ 2 30 км ясно +29.5 +18.8 53 +35 +47 очень
душно
1016.1 1010.1
14 19.08 З 3 н/о н/о +29.4 +16.6 46 +33 +33 душно 1016.6 1010.5
15 19.08 н/о н/о +28.5 +20.6 62 1016.4 1010.3
16 19.08 З 3 н/о н/о +27.7 +19.6 61 +33 +33 очень
душно
1016.1 1010.0
17 19.08 н/о н/о +26.8 +19.0 62 1015.9 1009.8
18 19.08 СЗ 1 30 км ясно +26.0 +20.0 70 +32 +32 очень
душно
1015.6 1009.5 +31.1
19 19.08 СЗ 2 30 км ясно +25.0 +20.6 77 +31 +31 очень
душно
1015.8 1009.7
20 19.08 СЗ 2 30 км ясно +24.6 +18.6 69 +29 +29 душно 1015.4 1009.3
21 19.08 С 2 н/о н/о +24.6 +19.1 71 +30 +30 очень
душно
1016.0 1009.8
00 20.08 СЗ 2 н/о н/о +24.2 +19.1 73 +29 +29 душно 1016.3 1010.1
03 20.08 штиль 0 30 км ясно +23.2 +15.0 60 +27 +27 душно 1016.1 1009.9
04 20.08 штиль 0 30 км ясно +23.0 +17.7 72 +28 +28 душно 1016.2 1010.0
05 20.08 ЮВ 1 30 км ясно +22.7 +18.5 77 +28 +29 душно 1016.2 1010.0

 

Местоположение метеостанции Дубровник (Хорватия): широта 42.65 долгота 18.08 высота над уровнем моря 53 м.

В архиве по умолчанию представлена погода в Дубровнике за последнюю неделю. Архивные данные за месяц целиком и за предыдущие месяцы, начиная с января 2011 года, Вы можете получить, выбрав интересующий диапазон дат из раскрывающегося списка и нажав кнопку "Ввод!".


*Определитесь, кто Вы:
робот инопланетянин человек

Внимание! Время в таблицах - всемирное. Для получения местного времени необходимо прибавить поправку, которая равна 1 ч.

Смотрите также архив погоды в соседних городах и на ближайших метеорологических станциях:

Погода в Дубровник аэропорту (Хорватия) (18 км)
Погода в Неуме (Босния и Герцеговина) (49 км)
Погода в Тивате (Черногория) (60 км)
Погода в Плоче (Хорватия) (68 км)
Погода в Никшиче (Черногория) (72 км)
Погода в Мостаре (Босния и Герцеговина) (81 км)
Погода в Ластово (Хорватия) (97 км)
Погода в Подгорице (Черногория) (101 км)
Погода в Подгорица-Граде (Черногория) (101 км)
Погода в Баре (Черногория) (104 км)

Пояснения к столбцам:

Ветер - указаны скорость ветра в м/с - средняя за 10 мин, порывы в срок и между сроками (в фигурных скобках) и направление, откуда дует ветер: С - северный, СВ - северо-восточный, В - восточный, ЮВ - юго-восточный, Ю - южный, ЮЗ - юго-западный, З - западный, СЗ - северо-западный.
Видимость - горизонтальная дальность видимости в метрах или километрах. При видимости от 1 до 10 км при отсутствии осадков обычно наблюдается дымка, при ухудшении видимости до 1 км и менее - туман. В сухую погоду видимость может ухудшаться дымом, пылью или мглою.
Явления - указаны атмосферные явления, наблюдавшиеся в срок или в последний час перед сроком; фигурными скобками обозначены явления, наблюдавшиеся между сроками (за 1-3 часа до срока); квадратными скобками обозначены град или гололедные отложения с указанием их диаметра в мм.
Облачность - указаны через наклонную черту общая и нижняя облачность в баллах и высота нижней границы облаков в метрах; квадратными скобками обозначены формы облаков: Ci - перистые, Cs - перисто-слоистые, Cc - перисто-кучевые, Ac - высококучевые, As - высокослоистые, Sc - слоисто-кучевые, Ns - слоисто-дождевые, Cu - кучевые, Cb - кучево-дождевые. Подробнее классификацию облаков см. в Атласе облаков (PDF).
T - Температура воздуха - температура, измеренная на высоте 2 м над землей.
Td - Температура точки росы - температура, при понижении до которой содержащийся в воздухе водяной пар достигнет насыщения.
f - Относительная влажность воздуха - влажноcть воздуха, измеренная на высоте 2 м над землей.
Te - Эффективная температура - температура, которую ощущает одетый по сезону человек в тени. Характеристика душности погоды. При расчете учитывается влияние влажности воздуха и скорости ветра на теплоощущения человека.
Tes - Эффективная температура на солнце - температура, которую ощущает человек, с поправкой на солнечный нагрев. Характеристика знойности погоды. Зависит от высоты солнца над горизонтом, облачности и скорости ветра. Ночью, в пасмурную погоду, а также при ветре 12 м/с и более поправка равна нулю.
P - Атмосферное давление - приведенное к уровню моря атмосферное давление.
Po - Атмосферное давление - измеренное на уровне метеостанции атмосферное давление.
Tmin - Минимальная температура - минимум температуры воздуха на высоте 2 м над землей.
Tmax - Максимальная температура - максимум температуры воздуха на высоте 2 м над землей.
R - Количество осадков - Количество выпавших осадков за период времени, мм. При наведении курсора мыши на число - период времени, за который выпало указанное количество осадков.
R24 - Количество осадков - Количество выпавших осадков за 24 часа, мм.
S - Снежный покров - Высота снежного покрова, см. При наведении курсора мыши на число - состояние снежного покрова и степень покрытия местности в баллах.